Regional Weather Roundup
Issued by NWS Sterling, VA

Home | Current Version | Previous Version | Text Only | Print | Product List | Glossary On
Versions: 1 2 3 4 5 6 7 8 9 10 11 12 13 14 15 16 17 18 19 20 21 22 23 24 25 26 27 28 29 30 31 32 33 34 35 36 37 38 39 40 41 42 43 44 45 46 47 48 49 50
000
ASUS41 KLWX 251611
RWRLWX

REGIONAL WEATHER ROUNDUP
NATIONAL WEATHER SERVICE BALTIMORE MD/WASHINGTON DC
1100 AM EST SUN FEB 25 2018

Note: "FAIR" indicates few or no clouds below 12,000 feet
with no significant weather and/or obstructions to visibility.
 TC=TEMPERATURE CELSIUS

 * =Non NWS site. Station does not report precipitation (e.g. rain,
    snow, etc.), thunder, or fog.

DCZ001-MDZ009-015-VAZ040>042-051-053>054-251700-
WASHINGTON METRO

CITY           SKY/WX    TMP DP  RH WIND       PRES   REMARKS
WASHINGTON NAT LGT RAIN  50  48  93 S6        29.97F
DULLES         LGT RAIN  49  49 100 SE9       29.93F
ANDREWS AFB    DRIZZLE   48  48 100 SE7       30.01S
FT BELVOIR     DRIZZLE   48  48 100 SE6       29.96F
QUANTICO       CLOUDY    50  49  96 SE3       29.97F
COLLEGE PARK*  CLOUDY    48  46  93 SE5       29.96F
LEESBURG*      LGT RAIN  46  46 100 CALM      29.95F
MANASSAS*      LGT RAIN  49  48  97 SE7       29.95F
GAITHERSBURG*  CLOUDY    47  46  97 SE9       29.94F

$$

MDZ006>007-011-014-251700-
BALTIMORE METRO

CITY           SKY/WX    TMP DP  RH WIND       PRES   REMARKS
BWI AIRPORT    LGT RAIN  47  47 100 SE7       29.96F
MD SCIENCE CTR   N/A     50  47  89 MISG      29.98F
MARTIN STATE   LGT RAIN  48  48 100 CALM      29.99F
ANNAPOLIS      LGT RAIN  48  48 100 SE6       29.98F
FORT MEADE*    CLOUDY    46  46 100 E5        29.99F

$$

MDZ012-015-019>023-251700-
MARYLAND EASTERN SHORE

CITY           SKY/WX    TMP DP  RH WIND       PRES   REMARKS
OCEAN CITY     CLOUDY    58  57  97 SW8       29.98R
SALISBURY      CLOUDY    60  57  89 W17       30.00R
BAY BRIDGE AP* LGT RAIN  46  46 100 CALM      29.98F FOG
CAMBRIDGE*     CLOUDY    48  48 100 CALM      29.99F FOG
EASTON*        DRIZZLE   50  48  93 CALM      30.03F

$$

MDZ017>025-251700-
SOUTHERN MARYLAND

CITY           SKY/WX    TMP DP  RH WIND       PRES   REMARKS
PATUXENT RIVER RAIN      48  48 100 SW7       30.00F FOG
ST INIGOES     CLOUDY    52  51  97 N6        30.01R FOG
LEONARDTOWN*   CLOUDY    50  50 100 SW6       30.01F

$$

MDZ003>005-251700-
NORTH CENTRAL MARYLAND

CITY           SKY/WX    TMP DP  RH WIND       PRES   REMARKS
FREDERICK*     PTSUNNY   48  48 100 MISG      29.97F
HAGERSTOWN APT CLOUDY    49  47  93 NW5       29.93R
WESTMINSTER*   RAIN      46  46 100 SE10      29.93F

$$

MDZ501>502-251700-
WESTERN MARYLAND

CITY           SKY/WX    TMP DP  RH WIND       PRES   REMARKS
OAKLAND*       CLOUDY    50  46  87 W17G25    29.91S
CUMBERLAND*    PTSUNNY   48  48 100 NE3       29.97R

$$

VAZ025>031-251700-
SHENANDOAH VALLEY

CITY           SKY/WX    TMP DP  RH WIND       PRES   REMARKS
WINCHESTER*    CLOUDY    46  46 100 NW6       29.93R
FRONT ROYAL*   CLOUDY    50  50 100 CALM      29.86F
LURAY*         CLOUDY    52  52 100 SW8       29.90F
NEW MARKET*    CLOUDY    52  51  96 W10G16    29.91F
STAUNTON*      PTSUNNY   50  50  98 W9        29.97S FOG
WAYNESBORO*    CLOUDY    53  53  99 W5        29.97R

$$

WVZ021-048>050-054>055-251700-
EASTERN WEST VIRGINIA PANHANDLE

CITY           SKY/WX    TMP DP  RH WIND       PRES   REMARKS
MARTINSBURG    CLOUDY    48  47  96 CALM      29.91F
PETERSBURG*    FAIR      49  47  93 CALM      29.91R

$$

VAZ036>039-050-251700-
CENTRAL FOOTHILLS

CITY           SKY/WX    TMP DP  RH WIND       PRES   REMARKS
CHARLOTTESVILL CLOUDY    51  50  96 SW6       29.95F FOG
CULPEPER*      MIX PCPN  51  49  94 CALM      29.96F
ORANGE*        CLOUDY    50  48  93 S5        29.95F
GORDONSVILLE*  CLOUDY    50  50 100 S7        29.97F
WARRENTON*     DRIZZLE   51  48  91 CALM      29.94F

$$

VAZ055>057-251700-
NORTH AND CENTRAL PIEDMONT

CITY           SKY/WX    TMP DP  RH WIND       PRES   REMARKS
FREDERICKSBRG* PTSUNNY   50  50 100 SE6       29.96F
STAFFORD*      CLOUDY    51  51 100 CALM      30.00F

$$

NCZ024-NYZ072-PAZ021-071-VAZ022-071-251700-
OTHER REGIONAL OBSERVATIONS

CITY           SKY/WX    TMP DP  RH WIND       PRES   REMARKS
NEW YORK CITY  LGT RAIN  41  39  93 NE8       30.03F FOG
PHILADELPHIA   LGT RAIN  46  44  93 NE7       29.99F
PITTSBURGH     CLOUDY    56  40  55 W14G23    29.86R
ROANOKE        FAIR      63  53  70 SW7       30.01S
RICHMOND       LGT RAIN  58  55  90 NW10      30.02R
RALEIGH        PTSUNNY   72  59  63 W13G24    30.08R

$$

ANZ530>537-251700-
MARINE OBSERVATIONS

STATION/POSITION TIME  TEMP    WIND        PRES
                       AIR SEA DIR/SP/G
                 (UTC) (F)     (DEG/KT/KT) (MB)
THOMAS PT LIGHT  1600   46 43     CALM       N/A
BALT KEY BRIDGE  1548   46     140/  5/  6 1015.2F
COVE POINT       1548   45     190/  8/  9 1016.3F
LEWISETTA        1548   50 50  340/  6/  7 1016.4R
SOLOMONS ISLAND  1548   47 43  190/  4/  5 1015.6F
PINEY POINT      1536          330/ 11/ 12   N/A

$$




USA.gov is the U.S. government's official web portal to all federal, state and local government web resources and services.